Year,Month,Day,Hour,Minute,Value (Times are PST for temperature in C)
2012,03,25,09,09,6.60
2012,03,25,09,10,6.60
2012,03,25,09,11,6.70
2012,03,25,09,12,6.80
2012,03,25,09,13,6.90
2012,03,25,09,14,7.00
2012,03,25,09,15,7.10
2012,03,25,09,16,7.20
2012,03,25,09,17,7.20
2012,03,25,09,18,7.30
2012,03,25,09,19,7.30
2012,03,25,09,20,7.40
2012,03,25,09,21,7.50
2012,03,25,09,22,7.50
2012,03,25,09,23,7.60
2012,03,25,09,24,7.60
2012,03,25,09,25,7.70
2012,03,25,09,26,7.60
2012,03,25,09,27,7.60
2012,03,25,09,28,7.70
2012,03,25,09,29,7.70
2012,03,25,09,30,7.70
2012,03,25,09,31,7.70
2012,03,25,09,32,7.70
2012,03,25,09,33,7.70
2012,03,25,09,34,7.70
2012,03,25,09,35,7.70
2012,03,25,09,36,7.80
2012,03,25,09,37,7.80
2012,03,25,09,38,7.80
2012,03,25,09,39,7.80
2012,03,25,09,40,7.80
2012,03,25,09,41,7.90
2012,03,25,09,42,7.90
2012,03,25,09,43,8.00
2012,03,25,09,44,8.00
2012,03,25,09,45,8.10
2012,03,25,09,46,8.20
2012,03,25,09,47,8.20
2012,03,25,09,48,8.30
2012,03,25,09,49,8.30
2012,03,25,09,50,8.30
2012,03,25,09,51,8.40
2012,03,25,09,52,8.40
2012,03,25,09,53,8.40
2012,03,25,09,54,8.50
2012,03,25,09,55,8.50
2012,03,25,09,56,8.60
2012,03,25,09,57,8.60
2012,03,25,09,58,8.60
2012,03,25,09,59,8.70
2012,03,25,10,00,8.70
2012,03,25,10,01,8.80
2012,03,25,10,02,8.80
2012,03,25,10,03,8.80
2012,03,25,10,04,8.90
2012,03,25,10,05,8.90
2012,03,25,10,06,8.90
2012,03,25,10,07,9.00
2012,03,25,10,08,9.00
2012,03,25,10,09,9.10
2012,03,25,10,10,9.10
2012,03,25,10,11,9.10
2012,03,25,10,12,9.10
2012,03,25,10,13,9.10
2012,03,25,10,14,9.10
2012,03,25,10,15,9.20
2012,03,25,10,16,9.20
2012,03,25,10,17,9.30
2012,03,25,10,18,9.30
2012,03,25,10,19,9.30
2012,03,25,10,20,9.30
2012,03,25,10,21,9.30
2012,03,25,10,22,9.30
2012,03,25,10,23,9.30
2012,03,25,10,24,9.30
2012,03,25,10,25,9.30
2012,03,25,10,26,9.40
2012,03,25,10,27,9.40
2012,03,25,10,28,9.40
2012,03,25,10,29,9.40
2012,03,25,10,30,9.40
2012,03,25,10,31,9.50
2012,03,25,10,32,9.60
2012,03,25,10,33,9.60
2012,03,25,10,34,9.60
2012,03,25,10,35,9.70
2012,03,25,10,36,9.70
2012,03,25,10,37,9.70
2012,03,25,10,38,9.60
2012,03,25,10,39,9.70
2012,03,25,10,40,9.70
2012,03,25,10,41,9.80
2012,03,25,10,42,9.80
2012,03,25,10,43,9.90
2012,03,25,10,44,9.90
2012,03,25,10,45,9.90
2012,03,25,10,46,9.90
2012,03,25,10,47,9.90
2012,03,25,10,48,10.00
2012,03,25,10,49,10.00
2012,03,25,10,50,10.10
2012,03,25,10,51,10.10
2012,03,25,10,52,10.20
2012,03,25,10,53,10.30
2012,03,25,10,54,10.40
2012,03,25,10,55,10.40
2012,03,25,10,56,10.50
2012,03,25,10,57,10.50
2012,03,25,10,58,10.50
2012,03,25,10,59,10.50
2012,03,25,11,00,10.50
2012,03,25,11,01,10.50
2012,03,25,11,02,10.40
2012,03,25,11,03,10.40
2012,03,25,11,04,10.40
2012,03,25,11,05,10.30
2012,03,25,11,06,10.30
2012,03,25,11,07,10.30
2012,03,25,11,08,10.20
2012,03,25,11,09,10.20
2012,03,25,11,10,10.20
2012,03,25,11,11,10.20
2012,03,25,11,12,10.20
2012,03,25,11,13,10.20
2012,03,25,11,14,10.20
2012,03,25,11,15,10.20
2012,03,25,11,16,10.20
2012,03,25,11,17,10.20
2012,03,25,11,18,10.30
2012,03,25,11,19,10.30
2012,03,25,11,20,10.30
2012,03,25,11,21,10.40
2012,03,25,11,22,10.40
2012,03,25,11,23,10.50
2012,03,25,11,24,10.50
2012,03,25,11,25,10.50
2012,03,25,11,26,10.50
2012,03,25,11,27,10.50
2012,03,25,11,28,10.60
2012,03,25,11,29,10.60
2012,03,25,11,30,10.70
2012,03,25,11,31,10.60
2012,03,25,11,32,10.60
2012,03,25,11,33,10.60
2012,03,25,11,34,10.60
2012,03,25,11,35,10.60
2012,03,25,11,36,10.60
2012,03,25,11,37,10.60
2012,03,25,11,38,10.70
2012,03,25,11,39,10.70
2012,03,25,11,40,10.70
2012,03,25,11,41,10.80
2012,03,25,11,42,10.80
2012,03,25,11,43,10.80
2012,03,25,11,44,10.80
2012,03,25,11,45,10.90
2012,03,25,11,46,10.90
2012,03,25,11,47,10.80
2012,03,25,11,48,10.80
2012,03,25,11,49,10.80
2012,03,25,11,50,10.90
2012,03,25,11,51,10.90
2012,03,25,11,52,10.80
2012,03,25,11,53,10.80
2012,03,25,11,54,10.80
2012,03,25,11,55,10.80
2012,03,25,11,56,10.90
2012,03,25,11,57,11.00
2012,03,25,11,58,11.10
2012,03,25,11,59,11.20
2012,03,25,12,00,11.20
2012,03,25,12,01,11.20
2012,03,25,12,02,11.20
2012,03,25,12,03,11.30
2012,03,25,12,04,11.30
2012,03,25,12,05,11.30
2012,03,25,12,06,11.40
2012,03,25,12,07,11.40
2012,03,25,12,08,11.50
2012,03,25,12,09,11.50
2012,03,25,12,10,11.60
2012,03,25,12,11,11.60
2012,03,25,12,12,11.60
2012,03,25,12,13,11.70
2012,03,25,12,14,11.70
2012,03,25,12,15,11.80
2012,03,25,12,16,11.80
2012,03,25,12,17,11.80
2012,03,25,12,18,11.80
2012,03,25,12,19,11.80
2012,03,25,12,20,11.80
2012,03,25,12,21,11.70
2012,03,25,12,22,11.70
2012,03,25,12,23,11.70
2012,03,25,12,24,11.70
2012,03,25,12,25,11.70
2012,03,25,12,26,11.80
2012,03,25,12,27,11.80
2012,03,25,12,28,11.90
2012,03,25,12,29,11.80
2012,03,25,12,30,11.90
2012,03,25,12,31,11.90
2012,03,25,12,32,11.90
2012,03,25,12,33,12.00
2012,03,25,12,34,12.00
2012,03,25,12,35,12.00
2012,03,25,12,36,12.00
2012,03,25,12,37,12.10
2012,03,25,12,38,12.10
2012,03,25,12,39,12.20
2012,03,25,12,40,12.20
2012,03,25,12,41,12.30
2012,03,25,12,42,12.30
2012,03,25,12,43,12.40
2012,03,25,12,44,12.40
2012,03,25,12,45,12.40
2012,03,25,12,46,12.40
2012,03,25,12,47,12.40
2012,03,25,12,48,12.30
2012,03,25,12,49,12.30
2012,03,25,12,50,12.30
2012,03,25,12,51,12.30
2012,03,25,12,52,12.30
2012,03,25,12,53,12.30
2012,03,25,12,54,12.30
2012,03,25,12,55,12.40
2012,03,25,12,56,12.50
2012,03,25,12,57,12.50
2012,03,25,12,58,12.50
2012,03,25,12,59,12.50
2012,03,25,13,00,12.40
2012,03,25,13,01,12.40
2012,03,25,13,02,12.40
2012,03,25,13,03,12.40
2012,03,25,13,04,12.50
2012,03,25,13,05,12.50
2012,03,25,13,06,12.50
2012,03,25,13,07,12.60
2012,03,25,13,08,12.60
2012,03,25,13,09,12.70
2012,03,25,13,10,12.80
2012,03,25,13,11,12.80
2012,03,25,13,12,12.80
2012,03,25,13,13,12.80
2012,03,25,13,14,12.90
2012,03,25,13,15,13.00
2012,03,25,13,16,13.10
2012,03,25,13,17,13.20
2012,03,25,13,18,13.20
2012,03,25,13,19,13.40
2012,03,25,13,20,13.50
2012,03,25,13,21,13.60
2012,03,25,13,22,13.70
2012,03,25,13,23,13.80
2012,03,25,13,24,13.80
2012,03,25,13,25,13.90
2012,03,25,13,26,13.90
2012,03,25,13,27,13.90
2012,03,25,13,28,13.90
2012,03,25,13,29,13.90
2012,03,25,13,30,13.90
2012,03,25,13,31,13.90
2012,03,25,13,32,13.90
2012,03,25,13,33,13.90
2012,03,25,13,34,13.90
2012,03,25,13,35,13.90
2012,03,25,13,36,13.90
2012,03,25,13,37,13.90
2012,03,25,13,38,13.90
2012,03,25,13,39,13.90
2012,03,25,13,40,13.90
2012,03,25,13,41,13.90
2012,03,25,13,42,13.90
2012,03,25,13,43,13.90
2012,03,25,13,44,13.90
2012,03,25,13,45,14.00
2012,03,25,13,46,14.00
2012,03,25,13,47,14.10
2012,03,25,13,48,14.10
2012,03,25,13,49,14.20
2012,03,25,13,50,14.30
2012,03,25,13,51,14.40
2012,03,25,13,52,14.50
2012,03,25,13,53,14.60
2012,03,25,13,54,14.60
2012,03,25,13,55,14.50
2012,03,25,13,56,14.50
2012,03,25,13,57,14.50
2012,03,25,13,58,14.50
2012,03,25,13,59,14.60
2012,03,25,14,00,14.60
2012,03,25,14,01,14.70
2012,03,25,14,02,14.80
2012,03,25,14,03,14.90
2012,03,25,14,04,15.00
2012,03,25,14,05,15.00
2012,03,25,14,06,15.00
2012,03,25,14,07,15.10
2012,03,25,14,08,15.20
2012,03,25,14,09,15.10
2012,03,25,14,10,15.00
2012,03,25,14,11,15.00
2012,03,25,14,12,15.00
2012,03,25,14,13,15.00
2012,03,25,14,14,15.00
2012,03,25,14,15,15.00
2012,03,25,14,16,15.00
2012,03,25,14,17,14.90
2012,03,25,14,18,14.90
2012,03,25,14,19,15.00
2012,03,25,14,20,15.00
2012,03,25,14,21,15.00
2012,03,25,14,22,15.00
2012,03,25,14,23,15.00
2012,03,25,14,24,14.80
2012,03,25,14,25,14.60
2012,03,25,14,26,14.60
2012,03,25,14,27,14.60
2012,03,25,14,28,14.60
2012,03,25,14,29,14.70
2012,03,25,14,30,14.70
2012,03,25,14,31,14.70
2012,03,25,14,32,14.70
2012,03,25,14,33,14.80
2012,03,25,14,34,14.80
2012,03,25,14,35,14.90
2012,03,25,14,36,15.00
2012,03,25,14,37,15.00
2012,03,25,14,38,15.00
2012,03,25,14,39,15.00
2012,03,25,14,40,15.00
2012,03,25,14,41,15.00
2012,03,25,14,42,15.00
2012,03,25,14,43,15.00
2012,03,25,14,44,15.00
2012,03,25,14,45,15.00
2012,03,25,14,46,15.10
2012,03,25,14,47,15.10
2012,03,25,14,48,15.00
2012,03,25,14,49,15.00
2012,03,25,14,50,15.00
2012,03,25,14,51,15.00
2012,03,25,14,52,15.00
2012,03,25,14,53,15.10
2012,03,25,14,54,15.20
2012,03,25,14,55,15.30
2012,03,25,14,56,15.40
2012,03,25,14,57,15.50
2012,03,25,14,58,15.50
2012,03,25,14,59,15.60
2012,03,25,15,00,15.70
2012,03,25,15,01,15.60
2012,03,25,15,02,15.60
2012,03,25,15,03,15.70
2012,03,25,15,04,15.70
2012,03,25,15,05,15.80
2012,03,25,15,06,15.80
2012,03,25,15,07,15.80
2012,03,25,15,08,15.80
2012,03,25,15,09,15.80
2012,03,25,15,10,15.80
2012,03,25,15,11,15.80
2012,03,25,15,12,15.80
2012,03,25,15,13,15.80
2012,03,25,15,14,15.80
2012,03,25,15,15,15.70
2012,03,25,15,16,15.70
2012,03,25,15,17,15.70
2012,03,25,15,18,15.70
2012,03,25,15,19,15.70
2012,03,25,15,20,15.70
2012,03,25,15,21,15.70
2012,03,25,15,22,15.70
2012,03,25,15,23,15.70
2012,03,25,15,24,15.70
2012,03,25,15,25,15.70
2012,03,25,15,26,15.60
2012,03,25,15,27,15.60
2012,03,25,15,28,15.50
2012,03,25,15,29,15.40
2012,03,25,15,30,15.40
2012,03,25,15,31,15.30
2012,03,25,15,32,15.30
2012,03,25,15,33,15.20
2012,03,25,15,34,15.10
2012,03,25,15,35,15.00
2012,03,25,15,36,15.00
2012,03,25,15,37,15.00
2012,03,25,15,38,15.00
2012,03,25,15,39,15.00
2012,03,25,15,40,15.00
2012,03,25,15,41,15.00
2012,03,25,15,42,15.00
2012,03,25,15,43,15.00
2012,03,25,15,44,15.00
2012,03,25,15,45,15.00
2012,03,25,15,46,15.00
2012,03,25,15,47,15.00
2012,03,25,15,48,15.00
2012,03,25,15,49,15.10
2012,03,25,15,50,15.20
2012,03,25,15,51,15.10
2012,03,25,15,52,15.00
2012,03,25,15,53,15.00
2012,03,25,15,54,15.00
2012,03,25,15,55,15.00
2012,03,25,15,56,15.00
2012,03,25,15,57,15.00
2012,03,25,15,58,15.00
2012,03,25,15,59,15.00
2012,03,25,16,00,15.00
2012,03,25,16,01,15.00
2012,03,25,16,02,15.00
2012,03,25,16,03,15.00
2012,03,25,16,04,15.00
2012,03,25,16,05,15.00
2012,03,25,16,06,15.00
2012,03,25,16,07,15.00
2012,03,25,16,08,15.00
2012,03,25,16,09,15.00
2012,03,25,16,10,15.00
2012,03,25,16,11,15.00
2012,03,25,16,12,15.00
2012,03,25,16,13,15.00
2012,03,25,16,14,15.00
2012,03,25,16,15,15.00
2012,03,25,16,16,15.00
2012,03,25,16,17,15.00
2012,03,25,16,18,15.00
2012,03,25,16,19,15.00
2012,03,25,16,20,15.00
2012,03,25,16,21,15.00
2012,03,25,16,22,15.00
2012,03,25,16,23,15.00
2012,03,25,16,24,15.00
2012,03,25,16,25,15.00
2012,03,25,16,26,15.00
2012,03,25,16,27,15.00
2012,03,25,16,28,15.00
2012,03,25,16,29,15.00
2012,03,25,16,30,15.00
2012,03,25,16,31,15.00
2012,03,25,16,32,15.00
2012,03,25,16,33,15.00
2012,03,25,16,34,15.00
2012,03,25,16,35,15.00
2012,03,25,16,36,15.00
2012,03,25,16,37,15.00
2012,03,25,16,38,15.00
2012,03,25,16,39,15.00
2012,03,25,16,40,15.00
2012,03,25,16,41,15.00
2012,03,25,16,42,15.00
2012,03,25,16,43,15.00
2012,03,25,16,44,15.00
2012,03,25,16,45,15.00
2012,03,25,16,46,15.00
2012,03,25,16,47,15.00
2012,03,25,16,48,15.00
2012,03,25,16,49,14.90
2012,03,25,16,50,14.90
2012,03,25,16,51,14.80
2012,03,25,16,52,14.80
2012,03,25,16,53,14.80
2012,03,25,16,54,14.80
2012,03,25,16,55,14.80
2012,03,25,16,56,14.80
2012,03,25,16,57,14.80
2012,03,25,16,58,14.80
2012,03,25,16,59,14.80
2012,03,25,17,00,14.80
2012,03,25,17,01,14.80
2012,03,25,17,02,14.80
2012,03,25,17,03,14.70
2012,03,25,17,04,14.70
2012,03,25,17,05,14.60
2012,03,25,17,06,14.50
2012,03,25,17,07,14.50
2012,03,25,17,08,14.40
2012,03,25,17,09,14.40
2012,03,25,17,10,14.30
2012,03,25,17,11,14.30
2012,03,25,17,12,14.30
2012,03,25,17,13,14.30
2012,03,25,17,14,14.30
2012,03,25,17,15,14.30
2012,03,25,17,16,14.30
2012,03,25,17,17,14.30
2012,03,25,17,18,14.30
2012,03,25,17,19,14.30
2012,03,25,17,20,14.30
2012,03,25,17,21,14.40
2012,03,25,17,22,14.40
2012,03,25,17,23,14.40
2012,03,25,17,24,14.40
2012,03,25,17,25,14.50
2012,03,25,17,26,14.50
2012,03,25,17,27,14.50
2012,03,25,17,28,14.50
2012,03,25,17,29,14.50
2012,03,25,17,30,14.50
2012,03,25,17,31,14.50
2012,03,25,17,32,14.40
2012,03,25,17,33,14.40
2012,03,25,17,34,14.40
2012,03,25,17,35,14.40
2012,03,25,17,36,14.30
2012,03,25,17,37,14.30
2012,03,25,17,38,14.30
2012,03,25,17,39,14.30
2012,03,25,17,40,14.30
2012,03,25,17,41,14.40
2012,03,25,17,42,14.40
2012,03,25,17,43,14.40
2012,03,25,17,44,14.40
2012,03,25,17,45,14.40
2012,03,25,17,46,14.40
2012,03,25,17,47,14.40
2012,03,25,17,48,14.40
2012,03,25,17,49,14.40
2012,03,25,17,50,14.40
2012,03,25,17,51,14.40
2012,03,25,17,52,14.50
2012,03,25,17,53,14.50
2012,03,25,17,54,14.50
2012,03,25,17,55,14.60
2012,03,25,17,56,14.60
2012,03,25,17,57,14.60
2012,03,25,17,58,14.60
2012,03,25,17,59,14.60
2012,03,25,18,00,14.60
2012,03,25,18,01,14.60
2012,03,25,18,02,14.60
2012,03,25,18,03,14.60
2012,03,25,18,04,14.60
2012,03,25,18,05,14.60
2012,03,25,18,06,14.60
2012,03,25,18,07,14.60
2012,03,25,18,08,14.60
